Wahpeton, MN

7:09 AM CST on December 08, 2019 (GMT -0600)
Stern

Weather History for KBWP - October, 2019

Change the Weather History Date:

Tuesday, October 8, 2019

  Actual Average (KFFM) Record (KFFM)
Temperature  
Mean Temperature 56 °F -  
Max Temperature 69 °F 57 °F 84 °F (2003)
Min Temperature 44 °F 38 °F 21 °F (2000)
Degree Days  
Heating Degree Days 8    
Growing Degree Days 6 (Base 50)    
Moisture  
Dew Point 42 °F    
Average Humidity 61    
Maximum Humidity 81    
Minimum Humidity 35    
Precipitation  
Precipitation 0.00 in - - ()
Sea Level Pressure  
Sea Level Pressure 29.74 in    
Wind  
Wind Speed 11 mph ()    
Max Wind Speed 24 mph    
Max Gust Speed 29 mph    
Visibility 10.0 miles    
Events      
Averages and records for this station are not official NWS values.
T = Trace of Precipitation, MM = Missing Value Source: Averaged Metar Reports

Daily Weather History Graph

Daily Weather History Graph

Search for Another Location

Airport or City:

Astronomy

Oct. 08, 2019 Rise Set
Actual Time 7:33 AM CDT 6:53 PM CDT
Civil Twilight 7:03 AM CDT 7:23 PM CDT
Nautical Twilight 6:29 AM CDT 7:57 PM CDT
Astronomical Twilight 5:54 AM CDT 8:32 PM CDT
Moon 5:13 PM CDT 2:02 AM CDT
Length of Visible Light 12h 19m
Length of Day
11h 19m
Waxing Gibbous, 78% of the Moon is Illuminated
Oct 8
Waxing Gibbous
Oct 13
Full
Oct 21
Last Quarter
Oct 27
New
Nov 4
First Quarter

Hourly Weather History & Observations

Time (CDT) Temp. Windchill Dew Point Humidity Pressure Visibility Wind Dir Wind Speed Gust Speed Precip Events Conditions
12:15 AM 44.6 °F 40.2 °F 37.4 °F 76% 29.87 in 10.0 mi SE 8.1 mph - N/A   Unknown
12:35 AM 46.4 °F 41.9 °F 37.4 °F 71% 29.86 in 10.0 mi SE 9.2 mph - N/A   Unknown
12:55 AM 46.4 °F 41.9 °F 37.4 °F 71% 29.85 in 10.0 mi SE 9.2 mph - N/A   Unknown
1:15 AM 46.4 °F 41.9 °F 37.4 °F 71% 29.84 in 10.0 mi SE 9.2 mph - N/A   Unknown
1:35 AM 46.4 °F 41.5 °F 37.4 °F 71% 29.83 in 10.0 mi SSE 10.4 mph - N/A   Unknown
1:55 AM 46.4 °F 41.9 °F 37.4 °F 71% 29.82 in 10.0 mi SSE 9.2 mph - N/A   Unknown
2:15 AM 46.4 °F 41.1 °F 37.4 °F 71% 29.82 in 10.0 mi SSE 11.5 mph - N/A   Unknown
2:35 AM 46.4 °F 41.9 °F 37.4 °F 71% 29.82 in 10.0 mi SE 9.2 mph - N/A   Unknown
2:55 AM 44.6 °F 40.2 °F 37.4 °F 76% 29.81 in 10.0 mi SE 8.1 mph - N/A   Unknown
3:15 AM 46.4 °F 41.5 °F 39.2 °F 76% 29.80 in 10.0 mi SE 10.4 mph - N/A   Unknown
3:35 AM 46.4 °F 41.9 °F 39.2 °F 76% 29.79 in 10.0 mi SE 9.2 mph - N/A   Unknown
3:55 AM 46.4 °F 42.4 °F 41.0 °F 81% 29.79 in 10.0 mi SSE 8.1 mph - N/A   Unknown
4:15 AM 46.4 °F 42.4 °F 41.0 °F 81% 29.79 in 10.0 mi SE 8.1 mph - N/A   Unknown
4:35 AM 46.4 °F 41.9 °F 41.0 °F 81% 29.78 in 10.0 mi SSE 9.2 mph - N/A   Unknown
4:55 AM 48.2 °F - 41.0 °F 76% 29.78 in 10.0 mi SE 6.9 mph - N/A   Unknown
5:15 AM 48.2 °F - 41.0 °F 76% 29.78 in 10.0 mi SE 9.2 mph - N/A   Unknown
5:35 AM 48.2 °F - 41.0 °F 76% 29.77 in 10.0 mi SE 8.1 mph - N/A   Unknown
5:55 AM 48.2 °F - 41.0 °F 76% 29.77 in 10.0 mi SSE 8.1 mph - N/A   Unknown
6:15 AM 48.2 °F - 41.0 °F 76% 29.76 in 10.0 mi SSE 9.2 mph - N/A   Unknown
6:35 AM 48.2 °F - 41.0 °F 76% 29.76 in 10.0 mi SSE 10.4 mph - N/A   Unknown
6:55 AM 46.4 °F 41.5 °F 41.0 °F 81% 29.76 in 10.0 mi SSE 10.4 mph - N/A   Unknown
7:15 AM 46.4 °F 41.9 °F 41.0 °F 81% 29.76 in 10.0 mi SSE 9.2 mph - N/A   Unknown
7:35 AM 46.4 °F 42.4 °F 41.0 °F 81% 29.76 in 10.0 mi SE 8.1 mph - N/A   Unknown
7:55 AM 46.4 °F 41.1 °F 41.0 °F 81% 29.76 in 10.0 mi SSE 11.5 mph - N/A   Unknown
8:15 AM 46.4 °F 41.1 °F 41.0 °F 81% 29.75 in 10.0 mi SSE 11.5 mph - N/A   Unknown
8:35 AM 50.0 °F - 41.0 °F 71% 29.76 in 10.0 mi SSE 11.5 mph - N/A   Unknown
8:55 AM 51.8 °F - 41.0 °F 67% 29.75 in 10.0 mi SSE 12.7 mph 18.4 mph N/A   Unknown
9:15 AM 51.8 °F - 41.0 °F 67% 29.74 in 10.0 mi SSE 12.7 mph - N/A   Unknown
9:35 AM 53.6 °F - 41.0 °F 62% 29.74 in 10.0 mi SSE 15.0 mph - N/A   Unknown
9:55 AM 55.4 °F - 42.8 °F 63% 29.74 in 10.0 mi SSE 13.8 mph 19.6 mph N/A   Unknown
10:15 AM 59.0 °F - 41.0 °F 51% 29.75 in 10.0 mi South 16.1 mph - N/A   Unknown
10:35 AM 60.8 °F - 41.0 °F 48% 29.75 in 10.0 mi South 15.0 mph 26.5 mph N/A   Unknown
10:55 AM 60.8 °F - 39.2 °F 45% 29.75 in 10.0 mi South 13.8 mph 25.3 mph N/A   Unknown
11:15 AM 62.6 °F - 41.0 °F 45% 29.75 in 10.0 mi South 19.6 mph 25.3 mph N/A   Unknown
11:35 AM 62.6 °F - 41.0 °F 45% 29.74 in 10.0 mi South 19.6 mph 26.5 mph N/A   Unknown
11:55 AM 62.6 °F - 41.0 °F 45% 29.73 in 10.0 mi South 18.4 mph - N/A   Unknown
12:15 PM 64.4 °F - 41.0 °F 42% 29.74 in 10.0 mi South 16.1 mph 19.6 mph N/A   Unknown
12:35 PM 64.4 °F - 41.0 °F 42% 29.74 in 10.0 mi South 17.3 mph 23.0 mph N/A   Unknown
12:55 PM 64.4 °F - 41.0 °F 42% 29.73 in 10.0 mi South 16.1 mph 24.2 mph N/A   Unknown
1:15 PM 66.2 °F - 42.8 °F 43% 29.73 in 10.0 mi South 19.6 mph 24.2 mph N/A   Unknown
1:35 PM 66.2 °F - 41.0 °F 40% 29.72 in 10.0 mi SSW 17.3 mph 26.5 mph N/A   Unknown
1:55 PM 68.0 °F - 42.8 °F 40% 29.71 in 10.0 mi South 18.4 mph 24.2 mph N/A   Unknown
2:15 PM 68.0 °F - 42.8 °F 40% 29.71 in 10.0 mi South 17.3 mph 24.2 mph N/A   Unknown
2:35 PM 68.0 °F - 41.0 °F 37% 29.70 in 10.0 mi South 24.2 mph 28.8 mph N/A   Unknown
2:55 PM 68.0 °F - 41.0 °F 37% 29.70 in 10.0 mi South 19.6 mph 27.6 mph N/A   Unknown
3:15 PM 68.0 °F - 41.0 °F 37% 29.70 in 10.0 mi South 19.6 mph 27.6 mph N/A   Unknown
3:35 PM 69.8 °F - 41.0 °F 35% 29.70 in 10.0 mi South 17.3 mph 26.5 mph N/A   Unknown
3:55 PM 69.8 °F - 41.0 °F 35% 29.69 in 10.0 mi South 15.0 mph 26.5 mph N/A   Unknown
4:15 PM 69.8 °F - 41.0 °F 35% 29.69 in 10.0 mi South 17.3 mph - N/A   Unknown
4:35 PM 69.8 °F - 41.0 °F 35% 29.69 in 10.0 mi South 18.4 mph 25.3 mph N/A   Unknown
4:55 PM 69.8 °F - 42.8 °F 38% 29.69 in 10.0 mi South 18.4 mph 23.0 mph N/A   Unknown
5:15 PM 69.8 °F - 42.8 °F 38% 29.69 in 10.0 mi South 17.3 mph 21.9 mph N/A   Unknown
5:35 PM 68.0 °F - 42.8 °F 40% 29.69 in 10.0 mi South 12.7 mph - N/A   Unknown
5:55 PM 66.2 °F - 44.6 °F 46% 29.69 in 10.0 mi South 11.5 mph - N/A   Unknown
6:15 PM 64.4 °F - 44.6 °F 49% 29.69 in 10.0 mi South 9.2 mph - N/A   Unknown
6:35 PM 62.6 °F - 44.6 °F 52% 29.69 in 10.0 mi SSE 8.1 mph - N/A   Unknown
6:55 PM 62.6 °F - 46.4 °F 55% 29.70 in 10.0 mi SSE 8.1 mph - N/A   Unknown
7:15 PM 60.8 °F - 46.4 °F 59% 29.70 in 10.0 mi SSE 6.9 mph - N/A   Unknown
7:35 PM 59.0 °F - 44.6 °F 59% 29.71 in 10.0 mi SSE 5.8 mph - N/A   Unknown
7:55 PM 59.0 °F - 44.6 °F 59% 29.72 in 10.0 mi SE 6.9 mph - N/A   Unknown
8:15 PM 55.4 °F - 44.6 °F 67% 29.72 in 10.0 mi SE 6.9 mph - N/A   Unknown
8:35 PM 55.4 °F - 44.6 °F 67% 29.72 in 10.0 mi SE 9.2 mph - N/A   Unknown
8:55 PM 55.4 °F - 44.6 °F 67% 29.72 in 10.0 mi SE 9.2 mph - N/A   Unknown
9:15 PM 55.4 °F - 44.6 °F 67% 29.72 in 10.0 mi SE 9.2 mph - N/A   Unknown
9:35 PM 55.4 °F - 44.6 °F 67% 29.72 in 10.0 mi SE 10.4 mph - N/A   Unknown
9:55 PM 55.4 °F - 44.6 °F 67% 29.72 in 10.0 mi SE 9.2 mph - N/A   Unknown
10:15 PM 55.4 °F - 44.6 °F 67% 29.72 in 10.0 mi SSE 11.5 mph - N/A   Unknown
10:35 PM 55.4 °F - 44.6 °F 67% 29.72 in 10.0 mi SE 10.4 mph - N/A   Unknown
10:55 PM 53.6 °F - 44.6 °F 72% 29.72 in 10.0 mi SE 9.2 mph - N/A   Unknown
11:15 PM 55.4 °F - 44.6 °F 67% 29.72 in 10.0 mi SE 11.5 mph - N/A   Unknown
11:35 PM 53.6 °F - 44.6 °F 72% 29.72 in 10.0 mi SE 11.5 mph - N/A   Unknown
11:55 PM 53.6 °F - 44.6 °F 72% 29.71 in 10.0 mi SE 11.5 mph - N/A   Unknown